Location: Oriwa
(40.7500°S, 175.3333°E)
Time: 14:12:58
(UTC+00:00)

Cosmos 44 - Pass Details

Date: 03 February 2023
Orbit: 582 x 777 km, 65.1° (Epoch: 30 March)

Event Time Altitude Azimuth Distance (km) Brightness Sun altitude
Exits shadow 16:09:57 13° 344° (NNW) 2,129 5.3 -13.8°
Maximum altitude 16:14:43 62° 62° (ENE) 870 3.9 -13.1°
Drops below altitude 10° 16:19:57 10° 142° (SE) 2,297 7.3 -12.2°
Sets 16:22:20 0° 144° (SE) 3,203 8.2 -11.9°
